• In Czech Republic
  • List of Countries
  • For 7 days
  • Water Temperature
  • Satellite Maps
  • Weather Map
  • Weather Widgets
  • user-avatar
    Login

    Hourly Weather Idzhewan

    Today, 24 September, Sunday

    Time Temperature Precipitation Wind Pressure Humidity
    00:00 +20°C° 0.8 mm 1 mps 695 mmHg 81%
    01:00 +19°C° 0.2 mm 1 mps 695 mmHg 82%
    02:00 +19°C° 0.2 mm 1 mps 695 mmHg 83%
    03:00 +19°C° 0.2 mm 1 mps 695 mmHg 84%
    04:00 +18°C° 0.1 mm 1 mps 696 mmHg 84%
    05:00 +18°C° 0.1 mm 1 mps 696 mmHg 84%
    06:00 +18°C° 0.1 mm 1 mps 696 mmHg 84%
    07:00 +19°C° 0 mm 1 mps 696 mmHg 78%
    08:00 +21°C° 0 mm 1 mps 696 mmHg 72%
    09:00 +22°C° 0 mm 1 mps 696 mmHg 65%
    10:00 +24°C° 0.1 mm 1 mps 696 mmHg 60%
    11:00 +25°C° 0.1 mm 2 mps 696 mmHg 55%
    12:00 +26°C° 0.1 mm 2 mps 696 mmHg 50%
    13:00 +27°C° 0.2 mm 2 mps 696 mmHg 48%
    14:00 +27°C° 0.2 mm 3 mps 696 mmHg 47%
    15:00 +27°C° 0.2 mm 3 mps 696 mmHg 45%
    16:00 +26°C° 0.3 mm 3 mps 696 mmHg 51%
    17:00 +24°C° 0.3 mm 2 mps 696 mmHg 57%
    18:00 +21°C° 0.3 mm 2 mps 696 mmHg 63%
    19:00 +20°C° 0.1 mm 2 mps 696 mmHg 66%
    20:00 +21°C° 0.1 mm 1 mps 696 mmHg 68%
    21:00 +20°C° 0.1 mm 1 mps 697 mmHg 71%
    22:00 +19°C° 0 mm 1 mps 697 mmHg 73%
    23:00 +19°C° 0 mm 1 mps 697 mmHg 74%

    Tomorrow, 25 September, Monday

    Time Temperature Precipitation Wind Pressure Humidity
    00:00 +18°C° 0 mm 1 mps 697 mmHg 75%
    01:00 +18°C° 0 mm 1 mps 697 mmHg 77%
    02:00 +18°C° 0 mm 1 mps 697 mmHg 78%
    03:00 +16°C° 0 mm 1 mps 697 mmHg 79%
    04:00 +16°C° 0 mm 1 mps 697 mmHg 80%
    05:00 +16°C° 0 mm 1 mps 697 mmHg 81%
    06:00 +16°C° 0 mm 1 mps 696 mmHg 82%
    07:00 +19°C° 0 mm 1 mps 697 mmHg 74%
    08:00 +21°C° 0 mm 1 mps 697 mmHg 67%
    09:00 +22°C° 0 mm 1 mps 697 mmHg 59%
    10:00 +24°C° 0.1 mm 2 mps 697 mmHg 55%
    11:00 +25°C° 0.1 mm 2 mps 697 mmHg 51%
    12:00 +26°C° 0.1 mm 3 mps 697 mmHg 46%
    13:00 +26°C° 0.1 mm 3 mps 697 mmHg 46%
    14:00 +27°C° 0.1 mm 3 mps 696 mmHg 46%
    15:00 +27°C° 0.1 mm 3 mps 696 mmHg 45%
    16:00 +25°C° 0.2 mm 3 mps 696 mmHg 52%
    17:00 +23°C° 0.2 mm 2 mps 696 mmHg 59%
    18:00 +20°C° 0.2 mm 2 mps 695 mmHg 67%
    19:00 +21°C° 0.1 mm 1 mps 696 mmHg 69%
    20:00 +20°C° 0.1 mm 1 mps 696 mmHg 72%
    21:00 +19°C° 0.1 mm 1 mps 696 mmHg 75%
    22:00 +19°C° 0 mm 1 mps 696 mmHg 76%
    23:00 +18°C° 0 mm 1 mps 696 mmHg 78%

    Day after tomorrow, 26 September, Tuesday

    Time Temperature Precipitation Wind Pressure Humidity
    00:00 +18°C° 0 mm 1 mps 696 mmHg 79%
    01:00 +16°C° 0 mm 1 mps 696 mmHg 80%
    02:00 +16°C° 0 mm 1 mps 696 mmHg 82%
    03:00 +16°C° 0 mm 1 mps 695 mmHg 83%
    04:00 +15°C° 0 mm 1 mps 695 mmHg 83%
    05:00 +15°C° 0 mm 1 mps 695 mmHg 84%
    06:00 +14°C° 0 mm 0 mps 695 mmHg 84%
    07:00 +18°C° 0 mm 1 mps 695 mmHg 77%
    08:00 +19°C° 0 mm 1 mps 695 mmHg 71%
    09:00 +20°C° 0 mm 1 mps 695 mmHg 64%
    10:00 +21°C° 0 mm 2 mps 695 mmHg 59%
    11:00 +23°C° 0 mm 2 mps 695 mmHg 54%
    12:00 +24°C° 0 mm 3 mps 695 mmHg 50%
    13:00 +24°C° 0 mm 3 mps 695 mmHg 50%
    14:00 +25°C° 0 mm 3 mps 694 mmHg 50%
    15:00 +25°C° 0 mm 3 mps 694 mmHg 50%
    16:00 +22°C° 0.1 mm 3 mps 694 mmHg 58%
    17:00 +21°C° 0.1 mm 2 mps 694 mmHg 66%
    18:00 +19°C° 0.1 mm 2 mps 694 mmHg 74%
    19:00 +19°C° 0 mm 2 mps 694 mmHg 77%
    20:00 +19°C° 0 mm 1 mps 695 mmHg 80%
    21:00 +19°C° 0 mm 1 mps 695 mmHg 83%
    22:00 +18°C° 0 mm 1 mps 695 mmHg 84%
    23:00 +17°C° 0 mm 2 mps 695 mmHg 85%

    27 September, Wednesday

    Time Temperature Precipitation Wind Pressure Humidity
    00:00 +17°C° 0 mm 2 mps 695 mmHg 87%
    01:00 +17°C° 0.1 mm 2 mps 695 mmHg 87%
    02:00 +16°C° 0.1 mm 2 mps 694 mmHg 88%
    03:00 +16°C° 0.1 mm 2 mps 694 mmHg 89%
    04:00 +16°C° 0.1 mm 1 mps 694 mmHg 89%
    05:00 +16°C° 0.1 mm 1 mps 694 mmHg 90%
    06:00 +16°C° 0.1 mm 1 mps 694 mmHg 90%
    07:00 +18°C° 0 mm 1 mps 694 mmHg 85%
    08:00 +18°C° 0 mm 1 mps 694 mmHg 79%
    09:00 +18°C° 0 mm 2 mps 694 mmHg 73%
    10:00 +19°C° 0.1 mm 2 mps 694 mmHg 69%
    11:00 +20°C° 0.1 mm 2 mps 694 mmHg 65%
    12:00 +21°C° 0.1 mm 3 mps 694 mmHg 61%
    13:00 +21°C° 0.1 mm 3 mps 694 mmHg 62%
    14:00 +21°C° 0.1 mm 3 mps 693 mmHg 63%
    15:00 +21°C° 0.1 mm 3 mps 693 mmHg 64%
    16:00 +20°C° 0.4 mm 2 mps 693 mmHg 70%
    17:00 +19°C° 0.4 mm 2 mps 693 mmHg 77%
    18:00 +18°C° 0.4 mm 2 mps 694 mmHg 83%
    19:00 +17°C° 0.1 mm 2 mps 694 mmHg 85%
    20:00 +17°C° 0.1 mm 2 mps 694 mmHg 86%
    21:00 +18°C° 0.1 mm 1 mps 695 mmHg 87%
    22:00 +16°C° 0.1 mm 2 mps 695 mmHg 89%
    23:00 +16°C° 0.1 mm 2 mps 695 mmHg 90%

    28 September, Thursday

    Time Temperature Precipitation Wind Pressure Humidity
    00:00 +16°C° 0.1 mm 2 mps 695 mmHg 91%
    01:00 +16°C° 0.1 mm 2 mps 694 mmHg 92%
    02:00 +15°C° 0.1 mm 2 mps 694 mmHg 93%
    03:00 +15°C° 0.1 mm 2 mps 694 mmHg 93%
    04:00 +15°C° 0 mm 1 mps 695 mmHg 93%
    05:00 +15°C° 0 mm 1 mps 695 mmHg 94%
    06:00 +15°C° 0 mm 1 mps 695 mmHg 94%
    07:00 +15°C° 0.1 mm 2 mps 695 mmHg 91%
    08:00 +16°C° 0.1 mm 2 mps 695 mmHg 88%
    09:00 +16°C° 0.1 mm 2 mps 695 mmHg 86%
    10:00 +17°C° 0.1 mm 2 mps 695 mmHg 83%
    11:00 +17°C° 0.1 mm 3 mps 695 mmHg 81%
    12:00 +18°C° 0.1 mm 3 mps 695 mmHg 79%
    13:00 +17°C° 0.2 mm 3 mps 695 mmHg 81%
    14:00 +17°C° 0.2 mm 3 mps 695 mmHg 82%
    15:00 +17°C° 0.2 mm 3 mps 695 mmHg 83%
    16:00 +16°C° 0.1 mm 3 mps 695 mmHg 85%
    17:00 +16°C° 0.1 mm 3 mps 695 mmHg 87%
    18:00 +14°C° 0.1 mm 3 mps 695 mmHg 90%
    19:00 +15°C° 0.1 mm 2 mps 696 mmHg 90%
    20:00 +15°C° 0.1 mm 2 mps 696 mmHg 91%
    21:00 +14°C° 0.1 mm 2 mps 696 mmHg 91%
    22:00 +14°C° 0.2 mm 2 mps 696 mmHg 92%
    23:00 +14°C° 0.2 mm 2 mps 696 mmHg 92%

    29 September, Friday

    Time Temperature Precipitation Wind Pressure Humidity
    00:00 +14°C° 0.2 mm 2 mps 696 mmHg 92%
    01:00 +14°C° 0.1 mm 2 mps 696 mmHg 93%
    02:00 +14°C° 0.1 mm 2 mps 696 mmHg 93%
    03:00 +14°C° 0.1 mm 2 mps 696 mmHg 93%
    04:00 +14°C° 0.1 mm 2 mps 696 mmHg 93%
    05:00 +13°C° 0.1 mm 1 mps 696 mmHg 94%
    06:00 +13°C° 0.1 mm 1 mps 696 mmHg 94%
    07:00 +14°C° 0.1 mm 2 mps 696 mmHg 91%
    08:00 +14°C° 0.1 mm 2 mps 696 mmHg 88%
    09:00 +15°C° 0.1 mm 2 mps 696 mmHg 86%
    10:00 +15°C° 0 mm 2 mps 696 mmHg 83%
    11:00 +16°C° 0 mm 2 mps 695 mmHg 81%
    12:00 +16°C° 0 mm 2 mps 695 mmHg 78%
    13:00 +16°C° 0.1 mm 2 mps 695 mmHg 79%
    14:00 +16°C° 0.1 mm 2 mps 694 mmHg 79%
    15:00 +16°C° 0.1 mm 2 mps 694 mmHg 79%
    16:00 +16°C° 0.5 mm 2 mps 694 mmHg 82%
    17:00 +15°C° 0.5 mm 2 mps 694 mmHg 85%
    18:00 +14°C° 0.5 mm 2 mps 694 mmHg 89%
    19:00 +14°C° 0.5 mm 1 mps 695 mmHg 90%
    20:00 +14°C° 0.5 mm 1 mps 695 mmHg 91%
    21:00 +14°C° 0.5 mm 1 mps 695 mmHg 93%
    22:00 +14°C° 0 mm 1 mps 695 mmHg 93%
    23:00 +14°C° 0 mm 1 mps 695 mmHg 93%
    Show more